User: anonymous
Location: Mason Neck State Park
(38.6428°N, 77.1981°W)
Time: 21:39:50
(UTC-04:00)
Language:

Cosmos 1400 Rocket - Orbit

View from above orbital plane
View from above orbital plane
View from above satellite
View from above satellite

Ground track
Ground track

The orbit data is extracted from the following two-line orbital elements,

1 13403U 82079B   14203.10718310  .00000308  00000-0  20494-4 0  6179
2 13403 081.1692 042.7793 0036800 168.0934 192.1167 15.03590083737064
Epoch (UTC): 22 July 2014 02:34:20
Eccentricity: 0.0036800
inclination: 81.1692°
perigee height: 530 km
apogee height: 581 km
right ascension of ascending node: 42.7793°
argument of perigee: 168.0934°
revolutions per day: 15.03590083
mean anomaly at epoch: 192.1167°
orbit number at epoch: 73706

The dashed part of the orbit path shows where the satellite is in the earth's shadow,  

DLR